This demonstration page uses our WeatherBlox Daily Observations layout. Learn more.

Hourly Observations for January 16, 2018

Temp ( °F °C ) Dew Point ( °F °C ) Humidity (%) Winds ( mph kmh ) Pressure ( in mb ) Visibility ( mi km ) Precip ( " mm )
12:15 am 00:15 Clear 1 -17.5 -6 -21.3 72 72 NNW 16 26 30.95 1048 10 16.0934 0 0
12:35 am 00:35 Clear 1 -17.5 -7 -21.5 71 71 NNW 16 26 30.95 1048 10 16.0934 0 0
12:55 am 00:55 Clear 0 -17.6 -7 -21.6 71 71 NNW 15 24 30.98 1049 10 16.0934 0 0
1:15 am 01:15 Clear 0 -17.8 -7 -21.9 71 71 NNW 16 26 30.98 1049 10 16.0934 0 0
1:35 am 01:35 Clear 0 -18 -8 -22.1 70 70 NNW 16 26 30.98 1049 10 16.0934 0 0
1:55 am 01:55 Clear -1 -18.2 -8 -22.2 71 71 NNW 14 22 30.98 1049 10 16.0934 0 0
2:15 am 02:15 Clear -1 -18.3 -8 -22.2 72 72 NNW 15 24 30.98 1049 10 16.0934 0 0
2:35 am 02:35 Clear -1 -18.4 -8 -22.3 72 72 NNW 15 24 30.98 1049 10 16.0934 0 0
2:55 am 02:55 Clear -1 -18.5 -9 -22.5 71 71 NNW 13 20 30.98 1049 10 16.0934 0 0
3:15 am 03:15 Clear -2 -18.7 -9 -22.5 72 72 NNW 15 24 30.98 1049 10 16.0934 0 0
3:35 am 03:35 Clear -2 -18.7 -9 -22.5 72 72 NNW 15 24 30.98 1049 10 16.0934 0 0
3:55 am 03:55 Clear -2 -18.9 -9 -22.5 73 73 NNW 14 22 30.98 1049 10 16.0934 0 0
4:15 am 04:15 Clear -2 -19 -9 -22.6 73 73 NNW 15 24 30.98 1049 10 16.0934 0 0
4:35 am 04:35 Clear -2 -19 -9 -22.6 73 73 NNW 14 22 30.98 1049 10 16.0934 0 0
4:55 am 04:55 Clear -2 -19 -9 -22.6 73 73 NNW 14 22 30.98 1049 10 16.0934 0 0
5:15 am 05:15 Clear -2 -19.1 -9 -22.7 73 73 NNW 13 20 30.98 1049 10 16.0934 0 0
5:35 am 05:35 Clear -3 -19.3 -9 -22.7 75 75 NW 15 24 30.98 1049 10 16.0934 0 0
5:55 am 05:55 Clear -3 -19.2 -9 -22.6 75 75 NW 13 20 30.98 1049 10 16.0934 0 0
6:15 am 06:15 Clear -3 -19.2 -9 -22.6 75 75 NNW 10 17 31.01 1050 10 16.0934 0 0
6:35 am 06:35 Clear -3 -19.3 -9 -22.6 75 75 NNW 10 17 30.98 1049 10 16.0934 0 0
6:55 am 06:55 Clear -3 -19.5 -9 -22.6 77 77 NNW 12 19 31.01 1050 10 16.0934 0 0
7:15 am 07:15 Clear -3 -19.5 -9 -22.6 77 77 NNW 10 17 31.01 1050 10 16.0934 0 0
7:35 am 07:35 Clear -3 -19.7 -9 -22.6 78 78 NNW 9 15 31.01 1050 10 16.0934 0 0
7:55 am 07:55 Clear -4 -19.8 -9 -22.7 78 78 N 6 9 31.01 1050 10 16.0934 0 0
8:15 am 08:15 Sunny -4 -19.9 -9 -22.8 78 78 NNW 6 9 31.04 1051 10 16.0934 0 0
8:35 am 08:35 Sunny -4 -19.8 -9 -22.6 79 79 NW 5 7 31.01 1050 10 16.0934 0 0
8:55 am 08:55 Sunny -2 -19 -8 -22 77 77 NNW 8 13 31.01 1050 10 16.0934 0 0
9:15 am 09:15 Sunny -1 -18.5 -8 -22 74 74 NNW 12 19 31.01 1050 10 16.0934 0 0
9:35 am 09:35 Sunny 0 -18 -7 -21.5 74 74 NNW 7 11 31.01 1050 10 16.0934 0 0
9:55 am 09:55 Sunny 1 -17.5 -6 -21.1 74 74 NNW 10 17 31.01 1050 10 16.0934 0 0
10:15 am 10:15 Sunny 2 -16.9 -5 -20.8 72 72 NNW 8 13 30.98 1049 10 16.0934 0 0
10:35 am 10:35 Sunny 3 -16.3 -5 -20.3 71 71 NW 10 17 30.98 1049 10 16.0934 0 0
10:55 am 10:55 Sunny 3 -16 -4 -20 72 72 NNW 10 17 30.98 1049 10 16.0934 0 0
11:15 am 11:15 Sunny 4 -15.3 -3 -19.5 70 70 NNW 8 13 30.98 1049 10 16.0934 0 0
11:35 am 11:35 Sunny 6 -14.6 -2 -19 69 69 NW 8 13 30.98 1049 10 16.0934 0 0
11:55 am 11:55 Sunny 7 -14 -1 -18.4 70 70 NNW 7 11 30.95 1048 10 16.0934 0 0
12:15 pm 12:15 Sunny 8 -13.2 0 -17.6 70 70 NW 8 13 30.92 1047 10 16.0934 0 0
12:35 pm 12:35 Sunny 9 -12.8 1 -17.5 68 68 NNW 6 9 30.92 1047 10 16.0934 0 0
12:55 pm 12:55 Sunny 10 -12.2 2 -16.9 68 68 NW 5 7 30.92 1047 10 16.0934 0 0
1:15 pm 13:15 Sunny 11 -11.5 3 -16.2 68 68 NNW 5 7 30.86 1045 10 16.0934 0 0
1:35 pm 13:35 Sunny 12 -11.2 3 -16.2 67 67 NW 5 7 30.86 1045 10 16.0934 0 0
1:55 pm 13:55 Sunny 12 -10.9 4 -15.8 67 67 W 3 6 30.83 1044 10 16.0934 0 0
2:15 pm 14:15 Sunny 13 -10.3 4 -15.5 66 66 WNW 3 6 30.83 1044 10 16.0934 0 0
2:35 pm 14:35 Sunny 14 -9.9 4 -15.7 63 63 NW 3 6 30.83 1044 10 16.0934 0 0
2:55 pm 14:55 Sunny 15 -9.4 4 -15.6 61 61 Calm 30.8 1043 10 16.0934 0 0
3:15 pm 15:15 Sunny 15 -9.3 4 -15.7 60 60 Calm 30.8 1043 10 16.0934 0 0
3:35 pm 15:35 Sunny 16 -8.8 4 -15.5 59 59 WNW 5 7 30.8 1043 10 16.0934 0 0
3:55 pm 15:55 Sunny 16 -8.7 3 -15.9 56 56 Calm 30.77 1042 10 16.0934 0 0
4:15 pm 16:15 Sunny 17 -8.5 3 -16.1 55 55 Calm 30.77 1042 10 16.0934 0 0
4:35 pm 16:35 Sunny 17 -8.6 2 -16.5 53 53 WSW 3 6 30.77 1042 10 16.0934 0 0
4:55 pm 16:55 Sunny 16 -8.8 2 -16.4 55 55 SW 5 7 30.77 1042 10 16.0934 0 0
5:15 pm 17:15 Sunny 15 -9.2 2 -16.5 56 56 SW 5 7 30.77 1042 10 16.0934 0 0
5:35 pm 17:35 Sunny 14 -9.9 2 -16.5 59 59 SW 5 7 30.77 1042 10 16.0934 0 0
5:55 pm 17:55 Clear 13 -10.5 2 -16.6 61 61 SSW 3 6 30.77 1042 10 16.0934 0 0
6:15 pm 18:15 Clear 12 -11.2 2 -16.7 64 64 SW 3 6 30.77 1042 10 16.0934 0 0
6:35 pm 18:35 Clear 11 -11.8 2 -16.9 66 66 SSW 5 7 30.77 1042 10 16.0934 0 0
6:55 pm 18:55 Clear 10 -12 1 -17.1 66 66 SSW 5 7 30.77 1042 10 16.0934 0 0
7:15 pm 19:15 Clear 9 -12.6 1 -17.5 67 67 SW 5 7 30.77 1042 10 16.0934 0 0
7:35 pm 19:35 Clear 9 -12.7 1 -17.5 68 68 SSW 6 9 30.77 1042 10 16.0934 0 0
7:55 pm 19:55 Clear 8 -13.2 1 -17.5 70 70 SW 5 7 30.74 1041 10 16.0934 0 0
8:15 pm 20:15 Clear 8 -13.4 1 -17.3 73 73 SSW 5 7 30.8 1043 10 16.0934 0 0
8:35 pm 20:35 Clear 8 -13.5 1 -17.5 72 72 SSW 5 7 30.77 1042 10 16.0934 0 0
8:55 pm 20:55 Clear 8 -13.6 1 -17.1 75 75 SSW 6 9 30.77 1042 10 16.0934 0 0
9:15 pm 21:15 Clear 7 -13.8 1 -17.3 75 75 SSW 7 11 30.77 1042 10 16.0934 0 0
9:35 pm 21:35 Clear 7 -14 1 -17.4 76 76 SSW 7 11 30.77 1042 10 16.0934 0 0
9:55 pm 21:55 Clear 6 -14.7 -1 -18.2 75 75 Calm 30.77 1042 10 16.0934 0 0
10:15 pm 22:15 Clear 4 -15.3 -1 -18.1 79 79 S 6 9 30.77 1042 10 16.0934 0 0
10:35 pm 22:35 Clear 6 -14.6 0 -17.7 78 78 SSW 8 13 30.77 1042 10 16.0934 0 0
10:55 pm 22:55 Clear 6 -14.3 1 -17.5 77 77 S 7 11 30.74 1041 10 16.0934 0 0
11:15 pm 23:15 Clear 8 -13.6 1 -17.1 75 75 SSW 9 15 30.71 1040 10 16.0934 0 0
11:35 pm 23:35 Clear 7 -13.7 1 -17.2 75 75 S 8 13 30.71 1040 10 16.0934 0 0
11:55 pm 23:55 Clear 7 -13.7 1 -17.1 76 76 SSW 9 15 30.71 1040 10 16.0934 0 0

Powered by AerisWeather